Location: LewisvilleTX
(33.0462°N, 96.9942°W)
Time: 19:22:25
(UTC+00:00)

Envisat - Pass Details

Date: 09 September 2019
Orbit: 764 x 766 km, 98.1° (Epoch: 24 September)

Event Time Altitude Azimuth Distance (km) Brightness Sun altitude
Rises 01:05:12 0° 178° (S) 3,216 6.1 -5.2°
Reaches altitude 10° 01:07:33 10° 183° (S) 2,294 5.4 -5.7°
Maximum altitude 01:12:29 54° 260° (W) 927 3.9 -6.7°
Drops below altitude 10° 01:17:27 10° 337° (NNW) 2,306 6.0 -7.8°
Sets 01:19:49 0° 342° (NNW) 3,236 6.7 -8.3°
